Weather History for Pompano Beach, FL

Change the Weather History Date:

Thursday, January 17, 2013

  Actual Average Record
Temperature  
Mean Temperature 70 °F -  
Max Temperature 78 °F 74 °F 85 °F (1955)
Min Temperature 60 °F 56 °F 39 °F (1959)
Cooling Degree Days 4    
Growing Degree Days 20 (Base 50)    
Moisture  
Dew Point 67 °F    
Average Humidity 88    
Maximum Humidity 100    
Minimum Humidity 71    
Precipitation  
Precipitation 0.10 in - - ()
Sea Level Pressure  
Sea Level Pressure 30.05 in    
Wind  
Wind Speed 6 mph (WSW)    
Max Wind Speed 23 mph    
Max Gust Speed 34 mph    
Visibility 10 miles    
Events Rain    
Averages and records for this station are not official NWS values.
T = Trace of Precipitation, MM = Missing Value Source: NWS Daily Summary

Daily Weather History Graph

Daily Weather History Graph

Search for Another Location

Airport:

Trip Planner

Search our weather history database for the weather conditions in past years. The results will help you decide how hot, cold, wet, or windy it might be!

Date:

Astronomy

Jan. 17, 2013 Rise Set
Actual Time 7:09 AM EST 5:52 PM EST
Civil Twilight 6:44 AM EST 6:16 PM EST
Nautical Twilight 6:16 AM EST 6:45 PM EST
Astronomical Twilight 5:48 AM EST 7:12 PM EST
Moon 10:57 AM EST (1/17) 11:56 PM EST (1/17)
Length of Visible Light 11h 32m
Length of Day
10h 42m
Waxing Crescent, 37% of the Moon is Illuminated
Jan 17
Waxing Crescent
Jan 18
First Quarter
Jan 26
Full
Feb 3
Last Quarter
Feb 10
New

Hourly Weather History & Observations

Time (EST) Temp. Dew Point Humidity Pressure Visibility Wind Dir Wind Speed Gust Speed Precip Events Conditions
12:53 AM 71.1 °F 70.0 °F 96% 30.05 in 10.0 mi SE 5.8 mph - 0.02 in   Overcast
1:53 AM 70.0 °F 68.0 °F 93% 30.04 in 10.0 mi East 3.5 mph - 0.00 in   Overcast
2:26 AM 71.6 °F 69.8 °F 94% 30.05 in 10.0 mi Calm Calm - 0.00 in Rain Light Rain
2:53 AM 70.0 °F 70.0 °F 100% 30.04 in 10.0 mi NW 3.5 mph - 0.00 in   Mostly Cloudy
3:02 AM 69.8 °F 69.8 °F 100% 30.04 in 10.0 mi NW 3.5 mph - 0.00 in Rain Light Rain
3:53 AM 70.0 °F 70.0 °F 100% 30.04 in 8.0 mi Calm Calm - 0.01 in Rain Light Rain
4:19 AM 71.6 °F 69.8 °F 94% 30.04 in 10.0 mi WNW 3.5 mph - 0.00 in   Overcast
4:53 AM 71.1 °F 70.0 °F 96% 30.04 in 10.0 mi Calm Calm - 0.00 in   Overcast
5:53 AM 70.0 °F 70.0 °F 100% 30.05 in 10.0 mi Calm Calm - N/A   Clear
6:53 AM 69.1 °F 69.1 °F 100% 30.06 in 7.0 mi Calm Calm - N/A   Mostly Cloudy
7:53 AM 70.0 °F 70.0 °F 100% 30.07 in 10.0 mi Calm Calm - N/A   Scattered Clouds
8:53 AM 73.9 °F 72.0 °F 93% 30.09 in 10.0 mi Calm Calm - N/A   Partly Cloudy
9:53 AM 77.0 °F 71.1 °F 82% 30.10 in 10.0 mi South 9.2 mph - N/A   Mostly Cloudy
10:53 AM 77.0 °F 69.1 °F 76% 30.09 in 10.0 mi South 10.4 mph - N/A   Mostly Cloudy
11:53 AM 77.0 °F 70.0 °F 79% 30.06 in 10.0 mi South 12.7 mph - N/A   Mostly Cloudy
12:53 PM 78.1 °F 68.0 °F 71% 30.02 in 10.0 mi SSE 11.5 mph - 0.00 in   Overcast
1:18 PM 73.4 °F 71.6 °F 94% 30.02 in 2.5 mi South 18.4 mph 25.3 mph 0.05 in Rain Rain
1:33 PM 71.6 °F 69.8 °F 94% 30.01 in 8.0 mi SSW 9.2 mph - 0.07 in Rain Light Rain
1:53 PM 72.0 °F 70.0 °F 93% 30.00 in 10.0 mi South 6.9 mph - 0.07 in   Overcast
2:53 PM 73.0 °F 69.1 °F 87% 30.00 in 10.0 mi SSW 5.8 mph - N/A   Mostly Cloudy
3:53 PM 75.0 °F 68.0 °F 79% 30.00 in 10.0 mi South 6.9 mph - N/A   Mostly Cloudy
4:53 PM 75.9 °F 68.0 °F 76% 30.00 in 10.0 mi SW 6.9 mph - N/A   Overcast
5:53 PM 73.9 °F 68.0 °F 82% 30.01 in 10.0 mi SSW 4.6 mph - N/A   Scattered Clouds
6:53 PM 71.1 °F 66.0 °F 84% 30.05 in 10.0 mi NW 23.0 mph 34.5 mph N/A   Mostly Cloudy
7:05 PM 69.8 °F 64.4 °F 83% 30.05 in 10.0 mi NW 19.6 mph 28.8 mph N/A   Scattered Clouds
7:53 PM 64.9 °F 61.0 °F 87% 30.08 in 10.0 mi NW 16.1 mph 20.7 mph 0.00 in   Scattered Clouds
8:00 PM 64.4 °F 60.8 °F 88% 30.08 in 10.0 mi NW 18.4 mph 23.0 mph N/A   Overcast
8:53 PM 63.0 °F 57.0 °F 81% 30.10 in 10.0 mi WNW 19.6 mph 25.3 mph N/A   Mostly Cloudy
9:32 PM 62.6 °F 57.2 °F 82% 30.10 in 10.0 mi WNW 11.5 mph 20.7 mph N/A   Partly Cloudy
9:53 PM 62.1 °F 57.0 °F 84% 30.10 in 10.0 mi WNW 10.4 mph - N/A   Clear
10:53 PM 61.0 °F 55.9 °F 83% 30.11 in 10.0 mi WNW 11.5 mph - N/A   Clear
11:53 PM 60.1 °F 54.0 °F 80% 30.11 in 10.0 mi WNW 11.5 mph - N/A   Clear